GFSNGP_925_temp_228.txt.gz
Temp
12 17 18 18 16 16 17 18 16 18 18 20 18 17 17 15 12 12 13 12 12 12 12 12 11 12 11 12 12 12 11 11 10 10 10 10 9 8 8 7 6 5 5 4
9 9 13 17 18 17 16 18 18 18 18 21 17 16 16 13 13 13 13 13 13 13 13 12 12 11 11 10 10 11 11 10 10 10 9 8 8 7 6 6 5 5 4 4
8 9 8 9 13 16 16 16 17 17 19 20 19 20 19 13 13 13 13 13 13 13 13 13 12 11 10 9 10 10 9 9 9 9 8 7 7 6 5 4 4 4 4 3
7 7 8 10 11 11 15 18 18 19 20 21 20 20 17 17 15 14 14 13 13 13 13 13 12 11 9 9 9 9 8 8 8 8 7 6 5 5 5 4 4 4 3 2
6 7 8 10 11 14 14 14 18 18 19 20 18 18 19 19 17 15 14 14 14 14 14 13 11 10 9 9 8 8 7 7 8 7 6 6 6 5 4 4 3 3 2 2
4 7 7 11 13 15 14 10 13 19 19 19 18 16 19 19 16 15 15 15 15 15 14 11 11 10 9 8 7 7 6 8 8 8 8 6 5 4 4 4 4 3 3 3
6 6 8 11 12 13 10 12 16 17 18 18 18 19 20 16 16 16 15 15 15 14 12 12 10 10 10 8 7 7 8 8 8 8 7 6 5 4 4 3 3 4 4 3
6 6 6 12 12 12 12 11 11 12 17 19 19 19 19 15 15 16 16 15 14 13 12 11 11 11 9 9 8 7 8 8 8 7 6 5 5 4 3 3 2 1 1 1
7 8 9 10 11 11 12 12 11 11 11 14 19 19 19 15 15 16 16 14 14 13 12 11 11 11 10 9 7 7 7 7 7 6 5 5 4 3 2 3 3 1 1 0
8 10 10 11 12 13 12 11 11 11 11 12 16 19 19 17 15 15 15 14 13 13 11 10 11 11 10 7 7 7 6 5 6 5 4 4 4 4 3 2 3 2 1 1
8 9 10 10 11 11 13 13 12 11 11 11 14 18 18 15 15 15 14 13 13 12 11 10 10 10 7 8 7 5 5 4 3 3 3 3 4 4 3 3 3 2 1 3
8 9 9 10 11 12 11 11 11 11 11 12 14 14 14 14 14 14 13 12 12 11 10 10 10 8 7 7 7 5 3 2 2 1 2 2 3 2 2 2 1 2 2 3
9 10 10 10 10 11 11 12 12 10 10 10 12 13 13 13 13 12 12 12 11 10 10 9 9 8 7 7 7 6 3 1 0 1 0 0 1 1 0 1 1 1 1 2
9 9 9 10 9 10 10 11 9 8 8 8 10 10 11 11 10 10 10 9 9 9 8 8 7 5 6 7 7 5 4 3 2 1 0 -0 -0 -0 -0 -0 -1 -1 1 1
8 9 9 10 8 8 9 9 8 8 8 6 7 8 8 8 6 4 3 4 4 4 3 4 3 3 7 8 7 5 4 1 1 -0 -0 -0 0 -0 -1 -1 -1 -1 -1 -1
8 8 9 8 8 8 8 8 7 6 7 7 6 5 4 4 3 3 3 4 4 3 2 2 1 2 5 6 6 3 1 1 -0 -0 0 -0 -0 -1 -1 -1 -1 -1 -2 -1
6 5 6 6 7 7 8 7 7 6 5 4 3 3 3 2 2 1 1 1 0 -0 0 0 -1 3 4 5 5 3 2 1 1 -0 0 -0 -0 -1 -1 -1 -1 -1 -2 -1
8 8 8 7 7 5 5 5 5 5 3 3 3 3 3 2 -0 -0 -1 -1 -1 -2 -2 -0 2 3 4 4 4 3 2 1 -0 -1 -1 -1 -1 -1 -1 -1 -1 -1 -0 -1
8 8 7 6 5 5 4 4 3 2 2 2 2 1 0 -0 -1 -2 -1 -0 -1 -1 -3 0 2 3 2 2 2 1 0 -1 -1 -1 -1 -1 -1 -1 -1 -1 -1 -1 -0 -0
8 8 6 5 4 2 1 1 1 1 0 0 -0 -1 -1 -2 -1 -1 -1 -1 -1 -2 -1 -1 0 0 0 -0 -1 -1 -1 -1 -2 -1 -1 -1 -1 -1 -1 -1 -1 -1 -1 -1
4 5 4 3 1 1 0 0 0 -0 0 1 1 -0 -2 -2 -2 -1 -1 -2 -3 -1 -1 -1 -1 -1 -1 -1 -1 -1 -1 -2 -2 -2 -2 -2 -1 -1 -1 -1 -1 -1 -1 -1
1 1 1 1 1 0 -0 -0 -1 -1 -1 -2 -2 -2 -2 -3 -3 -3 -2 -2 -2 -1 -2 -2 -1 -2 -1 -1 -1 -1 -1 -1 -1 -1 -1 -1 -1 -1 -1 -1 -1 -1 -1 -1
-0 0 -0 -1 -1 -2 -2 -2 -1 -2 -2 -2 -2 -2 -2 -3 -2 -2 -2 -3 -2 -2 -2 -2 -2 -1 -2 -2 -2 -1 -1 -1 -1 -1 -1 -1 -1 -1 -1 -1 -1 -1 -1 -1
-2 -2 -2 -2 -2 -2 -3 -3 -3 -3 -3 -4 -3 -3 -2 -3 -4 -3 -3 -3 -3 -2 -2 -2 -1 -1 -1 -1 -2 -2 -1 -1 -1 -1 -1 -1 -1 -1 -2 -2 -1 -1 -1 -2
-2 -2 -2 -2 -2 -3 -3 -3 -3 -3 -3 -3 -3 -3 -3 -3 -3 -3 -2 -2 -2 -2 -2 -2 -1 -1 -2 -2 -2 -2 -2 -2 -2 -2 -2 -2 -2 -2 -2 -2 -2 -2 -2 -3
-2 -2 -2 -2 -2 -2 -2 -2 -3 -3 -3 -3 -4 -3 -3 -2 -3 -2 -2 -2 -2 -2 -2 -2 -2 -2 -2 -2 -2 -2 -2 -2 -2 -2 -2 -2 -2 -2 -2 -2 -3 -3 -3 -3
-2 -3 -3 -3 -3 -3 -3 -3 -3 -3 -3 -3 -4 -3 -3 -3 -3 -2 -2 -3 -3 -3 -3 -2 -2 -2 -3 -3 -3 -2 -2 -2 -2 -2 -2 -2 -3 -3 -3 -3 -3 -3 -3 -3

GFSNGP_925_temp_234.txt.gz
Temp
8 9 9 8 8 9 8 9 15 20 22 24 26 25 24 24 23 20 19 19 22 22 20 19 18 17 16 15 13 13 14 14 12 13 12 12 11 10 10 9 9 8 7 6
9 10 10 11 12 12 10 10 11 14 17 20 25 26 26 26 25 24 21 19 18 20 20 19 18 17 16 13 14 14 14 12 12 12 12 11 10 9 9 8 8 7 7 6
9 11 11 9 11 12 13 14 14 15 18 16 19 22 24 24 24 24 24 20 19 18 19 19 18 17 16 13 13 13 13 13 12 12 11 10 10 9 8 8 7 7 6 5
9 9 8 12 15 15 14 14 15 16 16 17 15 17 18 20 23 24 25 24 21 20 18 18 18 17 16 14 13 13 13 13 12 12 11 10 10 9 7 7 6 5 4 4
8 10 12 13 15 15 15 14 16 17 17 18 17 17 18 21 22 23 24 24 25 23 20 18 17 16 16 15 14 13 13 13 12 11 10 9 8 7 7 6 5 5 4 3
9 8 10 15 16 17 16 14 17 18 18 18 18 16 19 21 22 23 23 24 24 24 21 18 17 16 15 15 14 14 13 12 11 10 9 8 7 7 6 5 5 5 3 3
9 9 11 14 15 16 12 13 17 18 18 19 18 19 20 19 19 21 22 24 24 23 23 19 17 16 16 15 15 14 12 11 10 8 7 7 6 6 5 5 4 4 3 3
8 8 8 14 15 13 15 16 16 16 17 17 18 18 19 18 19 20 21 22 23 22 22 20 17 16 16 16 14 13 11 9 8 7 7 5 5 5 5 4 3 3 4 3
11 11 13 15 15 16 15 15 16 16 16 16 16 17 18 17 18 19 20 21 22 23 21 19 17 16 17 16 15 12 10 9 8 7 5 6 5 5 5 4 3 3 3 2
11 13 13 14 15 15 15 16 16 16 16 15 15 15 16 16 17 18 19 20 21 21 21 19 17 15 16 16 14 11 9 7 5 6 5 5 5 4 3 3 2 2 1 1
11 13 14 14 15 15 15 15 15 16 15 15 15 15 15 16 17 18 19 20 20 21 19 19 16 15 16 15 11 11 9 7 6 5 5 4 5 4 3 2 3 2 1 1
11 13 13 14 15 15 15 15 15 15 14 15 15 14 15 16 17 17 18 18 20 20 20 18 15 15 16 13 11 10 9 7 6 4 4 4 3 2 2 2 2 2 2 2
13 13 14 14 14 15 14 14 14 14 14 14 15 14 14 15 16 16 16 17 18 20 19 17 15 15 15 11 10 9 9 7 5 4 4 3 2 2 1 1 1 1 1 2
12 12 11 12 12 13 13 14 13 14 14 14 14 14 14 14 15 14 14 15 15 19 17 16 14 14 12 10 10 9 7 5 5 4 3 2 2 2 1 0 -0 -0 1 2
11 12 12 12 12 12 13 13 12 13 13 14 14 14 13 12 12 13 13 12 10 10 11 11 10 9 9 9 8 7 5 4 4 3 3 2 2 2 1 1 1 1 0 0
10 10 10 10 11 12 12 12 12 12 12 13 13 13 12 10 9 10 12 12 12 11 7 7 6 6 7 6 4 4 4 4 4 3 2 2 2 2 2 1 1 1 0 0
7 7 8 9 9 10 11 12 12 12 12 12 11 10 8 5 6 5 6 10 11 7 5 5 4 4 3 4 5 4 3 3 3 3 3 2 2 2 2 2 1 1 0 -0
5 5 6 6 7 9 10 11 11 11 11 10 6 4 3 3 4 2 2 2 2 3 3 3 3 3 3 4 4 3 3 2 3 2 2 2 2 2 2 1 1 1 0 -1
5 3 3 5 6 7 9 10 11 10 5 2 2 2 2 1 1 1 2 2 2 2 1 2 2 3 3 2 2 3 2 2 2 1 1 1 1 1 1 1 1 0 -0 -1
3 3 3 7 7 8 7 7 3 3 2 1 1 1 1 1 0 1 1 1 2 1 1 1 2 1 1 2 3 2 2 2 1 1 1 1 1 0 1 0 0 0 0 -0
2 2 2 5 8 5 2 2 1 1 1 1 1 1 1 0 -0 -0 0 0 -1 -1 -0 0 0 1 2 2 2 1 1 1 0 0 0 0 0 0 0 0 0 -1 -1 -1
1 0 0 0 1 1 0 0 0 0 0 0 0 0 0 0 -0 -0 -1 -0 -1 -0 0 0 0 0 0 1 1 0 0 0 0 0 -0 -1 -1 -1 -1 -1 -1 -1 -1 -1
1 0 -0 -0 -0 0 -0 -0 -0 -0 -0 -0 -0 -0 -0 0 0 1 -0 -1 -0 -0 -0 -1 -1 -1 -0 -0 -0 -0 -1 -1 -1 -1 -1 -1 -1 -1 -1 -1 -0 -0 -1 -1
0 -0 -0 -1 -1 -0 -1 -1 -1 -2 -2 -2 -1 -1 -1 -0 -1 -2 -2 -2 -1 -1 -2 -2 -2 -1 -1 -1 -1 -1 -1 -1 -1 -1 -1 -1 -1 -0 -1 -0 -1 -1 -1 -1
-0 -0 -0 -0 -0 -0 -1 -1 -1 -1 -1 -1 -2 -2 -2 -2 -1 -2 -2 -2 -2 -2 -2 -2 -1 -2 -1 -1 -2 -2 -1 -1 -1 -1 -1 -1 -1 -1 -1 -1 -1 -1 -1 -1
-0 -0 -1 -1 -1 -0 -1 -0 -0 -1 -1 -1 -2 -2 -2 -2 -2 -2 -2 -2 -2 -2 -2 -2 -2 -2 -2 -1 -1 -1 -1 -1 -1 -1 -1 -1 -1 -1 -1 -1 -1 -1 -1 -2
-0 -1 -0 -1 -1 -1 -1 -1 -1 -1 -2 -2 -2 -2 -2 -2 -2 -2 -2 -2 -2 -2 -2 -2 -2 -2 -2 -2 -2 -2 -1 -1 -1 -1 -1 -1 -2 -2 -2 -2 -2 -2 -2 -2

GFSNGP_925_temp_237.txt.gz
Temp
8 9 10 11 11 10 9 9 11 20 23 26 26 26 28 27 25 25 23 24 25 25 23 23 22 22 18 15 14 14 14 13 13 13 13 14 14 14 13 13 12 11 11 10
10 12 12 12 13 13 13 11 11 14 17 20 22 24 25 27 26 27 27 24 23 24 24 23 22 21 20 16 14 14 13 13 13 13 13 13 13 13 12 11 11 10 10 9
10 12 12 10 12 14 14 15 15 15 19 21 21 21 21 22 22 23 25 26 23 22 23 24 23 21 20 17 14 14 14 13 13 13 13 13 12 12 11 11 10 10 9 8
9 10 9 14 16 17 16 16 16 17 19 19 20 20 21 21 22 22 24 25 26 24 22 22 22 22 20 18 15 14 13 13 12 13 12 12 12 12 11 10 10 9 8 7
9 11 12 14 16 17 17 17 18 17 18 20 20 20 20 22 23 23 23 25 25 25 24 21 21 21 21 17 15 14 13 13 13 12 12 12 12 11 11 9 8 7 6 4
10 9 11 16 18 19 18 15 19 19 19 19 20 19 20 22 23 23 24 25 25 25 24 25 21 20 20 18 15 14 13 13 12 13 12 12 12 10 9 8 7 6 4 3
10 10 12 16 17 18 14 14 18 18 18 18 18 20 21 22 22 23 23 23 24 24 25 25 21 20 19 18 16 14 13 13 13 12 12 12 10 9 7 7 6 5 4 3
10 9 10 16 16 15 17 18 18 17 17 17 17 18 19 20 21 22 22 22 23 23 24 25 22 19 19 19 16 15 14 13 13 12 11 10 8 8 7 6 5 4 4 4
12 12 15 16 16 17 18 17 17 17 18 17 17 18 19 19 19 20 21 22 23 23 24 24 24 20 20 19 18 15 14 13 12 11 9 8 8 6 6 5 5 5 4 4
12 14 15 16 17 17 17 17 17 17 17 17 17 17 18 18 18 17 19 20 21 22 23 23 24 23 20 19 18 16 14 12 10 8 8 7 7 6 6 5 5 4 4 3
13 14 15 15 16 16 17 17 17 17 17 17 17 17 17 17 18 18 19 19 20 21 21 22 22 22 20 19 18 15 13 11 9 7 7 7 6 6 5 5 5 4 3 2
12 14 14 15 16 17 16 16 17 17 17 17 17 17 17 17 18 18 18 19 19 20 20 21 21 22 20 18 18 15 12 11 9 7 7 7 5 4 4 4 4 3 2 2
14 15 14 15 15 16 15 15 16 16 16 16 17 16 17 17 17 16 17 18 18 19 19 19 20 21 19 17 18 15 12 10 8 8 7 5 4 3 1 2 2 2 3 2
15 14 13 14 14 15 15 15 15 15 16 16 16 16 16 16 16 16 16 17 17 17 17 18 18 17 17 16 16 14 11 9 8 7 7 4 3 3 2 1 1 1 1 2
14 13 13 13 14 14 14 14 14 14 15 15 15 16 16 15 15 16 16 15 13 10 9 10 9 10 15 16 14 12 11 9 7 6 5 4 3 2 2 2 1 0 0 1
11 11 12 12 12 12 13 13 13 14 14 14 15 15 15 15 15 16 16 15 14 13 12 8 7 9 14 13 11 10 9 7 7 5 4 3 3 2 2 2 1 1 0 -0
9 8 8 8 8 8 9 11 12 13 13 14 14 15 14 14 14 14 14 12 11 9 10 8 7 8 11 10 10 9 7 5 5 4 4 4 3 3 2 2 2 1 1 0
9 8 7 7 7 6 7 8 9 10 13 13 13 10 7 5 8 6 4 3 3 4 5 7 6 6 8 9 8 7 5 4 4 4 4 4 3 3 2 2 2 1 1 0
7 6 6 6 6 5 4 4 7 9 8 7 5 4 4 4 4 4 3 2 3 4 4 5 6 6 7 6 6 4 4 4 4 4 3 2 2 2 2 2 2 1 0 -0
4 4 4 4 4 2 3 6 6 7 9 6 3 2 2 2 2 2 2 2 3 4 3 3 4 6 5 4 4 4 4 4 3 2 2 2 2 2 2 1 1 1 0 -0
3 2 2 2 2 1 2 3 3 3 3 1 1 2 2 1 0 0 1 1 0 2 2 3 4 3 3 2 3 3 2 2 1 1 1 1 1 1 1 1 1 1 0 -0
1 1 1 0 1 1 0 0 1 0 1 1 1 1 0 1 0 -0 -0 0 -1 1 1 1 2 2 2 2 2 1 1 1 0 1 1 1 1 1 1 1 0 0 -0 -0
1 1 0 0 0 0 -0 -0 -0 0 0 0 0 1 1 0 0 0 0 -1 -1 -1 -1 -0 0 0 0 0 0 -0 -0 0 0 0 0 0 0 0 0 0 -0 -0 -1 -1
1 0 0 0 -0 0 0 -0 -0 -1 -0 -1 -1 -1 -0 -0 -1 -1 -1 -1 -1 -1 -1 -1 -0 -0 -0 -0 -0 -0 0 -0 -0 -0 -0 -0 -0 -0 -1 -1 -1 -1 -1 -1
0 0 -0 0 1 1 0 -0 -0 -0 -1 -1 -1 -1 -1 -1 -1 -1 -1 -2 -2 -1 -1 -1 -0 -0 -1 -1 -1 -1 -1 -1 -1 -1 -1 -1 -1 -1 -1 -1 -1 -1 -1 -1
0 1 0 -0 -0 0 0 -0 0 -0 -0 -0 -1 -1 -1 -1 -1 -1 -2 -2 -2 -2 -2 -1 -1 -1 -1 -1 -1 -1 -1 -1 -1 -1 -1 -1 -1 -1 -1 -1 -1 -1 -1 -1
1 -0 1 1 0 0 -0 -1 -0 -0 -1 -1 -1 -1 -1 -2 -2 -2 -2 -2 -2 -2 -2 -2 -1 -1 -1 -1 -1 -1 -1 -1 -1 -1 -1 -1 -1 -1 -1 -1 -1 -1 -1 -2

GFSNGP_925_temp_243.txt.gz
Temp
8 8 8 8 8 9 9 9 10 13 15 18 17 15 16 17 17 20 20 22 21 19 19 19 17 17 17 18 20 22 24 23 21 20 18 17 16 16 15 15 15 14 13 12
8 10 10 8 10 9 10 11 10 10 11 17 16 15 15 16 16 18 20 20 20 21 20 20 18 16 16 17 17 17 17 16 17 17 16 16 15 15 14 14 13 12 11 12
8 9 9 7 9 11 12 13 13 12 13 16 15 16 13 14 16 16 19 20 21 20 20 19 19 17 16 17 17 17 16 15 15 15 15 15 14 14 13 12 12 11 10 10
5 8 6 11 14 14 12 13 13 14 15 16 14 15 15 13 14 14 16 17 19 19 19 19 21 19 16 15 15 15 14 14 14 14 14 14 13 13 12 11 11 10 10 9
5 7 9 11 13 14 14 13 15 15 16 17 17 16 17 15 12 14 14 16 17 19 19 21 21 18 16 15 14 14 13 13 14 13 13 12 12 11 11 10 9 9 8 9
5 5 6 12 15 16 14 10 15 16 16 16 16 13 14 16 16 17 17 17 18 20 20 20 21 18 15 13 13 12 13 13 13 13 12 12 11 10 10 9 8 7 7 8
7 7 8 13 14 15 12 11 15 16 16 15 13 14 16 16 17 17 17 18 19 20 20 20 21 18 15 13 13 13 13 13 13 12 12 11 10 9 9 8 6 6 6 7
7 7 6 13 14 13 13 13 14 14 15 15 15 15 16 16 17 17 17 17 19 18 19 21 21 21 16 14 15 14 13 12 11 11 11 10 10 9 8 7 5 4 3 2
9 8 11 12 14 14 13 13 14 14 14 15 15 15 16 16 15 16 17 16 17 17 17 19 20 19 17 16 16 13 12 11 11 11 10 9 9 8 7 6 4 3 2 1
7 9 11 11 12 14 14 13 14 14 14 14 14 14 14 14 15 15 16 16 17 17 16 16 17 18 19 18 16 13 11 10 10 10 9 9 8 7 6 5 4 3 2 1
8 10 10 11 12 12 12 12 13 13 13 13 13 13 14 14 14 14 15 15 16 15 14 15 17 17 18 19 15 12 11 10 10 9 9 8 8 7 6 5 5 4 3 2
7 10 10 11 12 13 12 12 12 12 12 12 13 13 13 13 13 13 13 15 14 15 15 16 17 17 17 18 16 13 11 10 10 9 9 8 7 6 6 5 5 4 3 2
9 11 10 10 12 11 11 11 12 12 11 12 12 12 12 12 12 12 13 13 13 14 16 16 16 16 15 15 14 13 12 10 9 9 8 7 6 5 4 4 4 4 3 4
11 10 9 9 9 10 10 10 11 11 11 11 11 11 12 12 11 11 11 13 14 14 15 15 14 15 15 15 15 14 13 11 9 8 8 7 6 5 4 3 3 2 3 3
10 9 9 8 8 8 9 8 8 8 9 9 9 9 9 10 11 11 12 13 14 13 14 13 14 15 15 15 13 14 14 10 8 8 7 6 5 5 4 4 3 1 1 1
8 7 7 7 7 7 7 7 7 7 7 7 7 7 8 8 9 9 10 12 8 7 10 11 10 14 15 13 11 12 13 13 8 7 6 5 5 4 4 3 2 1 0 -0
5 4 5 4 4 4 4 5 5 5 5 5 5 6 7 7 7 7 8 8 9 10 12 12 12 15 14 12 10 10 11 11 10 7 5 5 4 4 3 3 2 1 1 -0
4 3 3 4 3 3 4 3 3 4 3 4 4 4 3 3 4 4 4 5 4 4 5 10 12 12 11 11 11 9 10 10 6 6 5 5 4 4 3 2 2 1 0 -0
3 3 3 3 3 3 2 2 2 1 1 1 1 1 1 2 2 3 4 2 2 2 4 8 7 7 8 9 9 8 8 8 5 6 5 4 3 3 3 2 1 1 0 -0
2 3 2 2 2 1 -0 1 0 -0 0 0 1 1 1 1 2 2 2 2 3 4 4 5 5 6 7 7 8 8 7 7 6 6 4 4 3 2 2 2 1 0 0 -0
1 1 1 1 -0 -0 -1 -0 -1 -0 -0 -0 -0 1 0 1 1 1 1 1 2 2 2 3 2 2 4 5 5 6 5 6 6 5 4 3 3 2 2 1 1 0 0 -0
0 0 0 -1 -0 -0 -0 -0 -0 -1 -1 -1 -0 -0 -0 0 0 -0 -0 0 0 0 1 1 1 1 1 2 3 4 4 5 6 4 3 3 2 2 1 1 0 -0 -0 -1
0 -0 -0 -0 -0 -1 -0 -0 -0 -1 -1 -1 -1 -1 -1 -1 -1 -1 -1 0 -0 -1 -1 -1 -0 -0 1 1 2 3 4 5 4 3 3 2 2 1 1 0 -0 -0 -0 -1
1 -0 -0 -1 -0 -2 -0 -0 -1 -1 -1 -1 -1 -1 -1 -1 -1 -1 -2 -2 -2 -1 -1 -1 0 1 1 1 2 3 4 3 3 2 2 1 1 1 0 -0 -1 -0 -0 -1
0 -1 -0 -1 -1 -1 -1 -1 -1 -1 -1 -1 -1 -1 -1 -2 -2 -2 -2 -2 -1 -1 -1 -1 -1 -0 -0 0 1 1 1 1 1 1 0 -0 -0 -1 -1 -1 -1 -1 -0 -0
0 -0 -1 -1 -1 -1 -1 -1 -2 -1 -1 -1 -1 -2 -2 -2 -2 -2 -1 -2 -2 -2 -2 -1 -1 -1 -1 -1 -1 -1 -1 -1 -1 -1 -1 -1 -1 -1 -1 -1 -0 -0 -0 -1
0 -0 -1 -2 -1 -1 -1 -2 -2 -2 -2 -2 -2 -2 -2 -2 -2 -2 -2 -1 -2 -2 -2 -2 -2 -1 -1 -1 -1 -1 -1 -1 -1 -1 -1 -1 -1 -0 -0 -0 -0 -0 -1 -1

GFSNGP_925_temp_249.txt.gz
Temp
6 7 8 8 7 8 7 8 8 11 10 11 13 13 13 13 13 13 13 13 13 14 14 15 14 14 16 20 21 21 21 20 20 19 18 18 18 18 18 17 17 17 16 16
6 8 9 8 9 10 9 9 8 9 10 11 12 13 13 13 13 13 12 12 12 13 13 14 15 14 14 14 17 19 20 20 20 19 18 18 17 17 17 17 17 16 16 16
4 6 7 6 10 10 10 9 9 9 11 11 12 12 13 13 13 12 12 11 11 12 12 13 14 14 14 14 15 17 18 19 19 19 18 17 17 16 16 16 16 16 16 15
4 5 1 8 11 11 11 11 11 11 11 12 11 11 12 13 12 11 11 11 11 11 12 12 14 15 14 15 14 14 16 17 18 18 18 17 17 16 16 16 16 15 15 14
1 3 7 9 12 11 11 11 12 11 11 12 12 12 12 13 12 12 11 9 10 10 11 12 12 13 14 13 14 14 15 15 16 17 17 16 16 16 16 15 15 14 14 13
0 2 2 9 11 11 11 9 12 13 12 12 12 10 11 14 12 11 11 11 9 9 10 11 11 12 13 13 13 12 13 13 15 15 15 15 15 15 15 15 14 13 12 12
5 3 6 9 9 11 9 8 9 12 13 13 12 12 13 13 13 11 10 11 10 9 9 10 10 12 14 13 12 13 13 13 14 14 14 14 14 14 13 13 12 11 11 10
4 3 4 8 8 8 7 9 9 11 12 11 12 12 13 13 13 12 11 10 10 10 9 9 10 10 13 13 14 14 13 13 13 13 13 13 12 11 11 10 9 8 7 7
5 5 7 8 9 9 8 8 9 10 11 11 12 12 12 12 12 13 14 13 11 11 10 10 9 9 11 13 14 13 12 11 12 12 12 12 11 10 9 8 7 6 5 4
6 7 7 8 9 9 9 9 10 10 10 11 10 10 11 11 11 11 12 12 13 13 12 12 12 13 11 11 14 14 11 10 10 11 11 10 10 9 8 7 5 4 4 3
6 7 7 8 8 9 10 10 9 9 9 9 9 9 9 10 10 10 11 12 12 12 12 13 14 14 15 15 13 13 13 10 10 10 10 10 10 9 9 8 8 5 5 4
6 7 7 8 9 9 8 7 7 7 7 7 8 8 8 8 8 9 9 9 10 10 11 12 14 14 15 16 16 15 12 10 10 10 9 9 9 8 7 7 7 6 6 7
7 8 6 6 7 7 7 6 6 6 6 6 6 6 6 6 7 7 7 8 8 8 8 9 10 12 15 15 15 15 12 11 9 9 9 8 8 7 5 5 5 5 5 4
7 6 5 7 6 5 5 5 5 5 5 4 4 4 5 5 5 5 5 6 6 6 6 7 7 8 10 13 14 14 15 14 10 9 9 8 7 7 6 4 2 3 4 4
6 5 4 4 4 3 3 3 3 3 3 3 3 3 3 3 3 3 4 4 4 4 4 5 5 6 8 9 10 12 13 13 13 11 9 8 7 7 6 4 3 2 2 2
4 3 2 2 2 2 2 2 2 2 2 1 1 1 1 1 1 1 2 2 2 2 3 4 4 5 5 6 7 8 9 11 12 11 8 7 7 5 4 3 2 1 1 0
2 2 2 1 1 1 2 3 1 1 0 0 1 1 1 0 0 1 1 1 0 0 1 2 2 3 4 4 4 5 6 7 9 8 6 6 6 5 4 3 2 1 1 0
2 1 2 2 2 2 2 1 -0 1 1 1 0 -0 -1 -1 -1 -1 -0 -0 0 0 0 0 1 1 2 3 3 3 4 5 6 6 7 5 5 5 4 4 3 2 1 0
3 2 1 2 1 1 -0 -0 -0 -0 -0 -0 -1 -1 -1 -1 -1 -0 -1 -1 -1 -0 0 1 1 1 1 2 2 2 2 4 4 5 5 5 5 5 4 4 3 2 1 -0
2 2 2 1 1 1 -0 -0 -0 -0 -1 -1 -1 -1 -1 -1 -1 -1 -1 -2 -1 -1 -0 -0 0 1 1 2 3 2 2 2 3 4 4 4 4 4 4 4 3 2 1 -0
1 1 0 0 -0 -0 -1 -1 -1 -1 -1 -1 -1 -1 -2 -2 -2 -1 -1 -1 -1 -1 -1 -1 -1 0 1 1 2 2 1 1 3 4 3 4 4 4 3 3 2 2 1 0
0 -0 -0 -1 -1 -1 -1 -2 -3 -2 -2 -2 -2 -2 -2 -2 -2 -2 -1 -2 -2 -1 -2 -2 -1 -1 -0 1 1 1 1 1 2 3 3 3 4 3 3 3 2 1 1 0
0 0 0 -1 -1 -1 -1 -2 -2 -2 -3 -3 -3 -3 -3 -2 -2 -2 -2 -1 -2 -2 -2 -2 -2 -2 -2 -1 -1 -0 0 1 1 2 3 3 3 3 3 2 2 1 1 -0
-0 0 -0 -1 -1 -1 -1 -1 -2 -2 -3 -3 -3 -3 -3 -3 -2 -2 -2 -2 -2 -2 -2 -2 -2 -2 -2 -2 -2 -1 -1 -0 1 1 2 3 3 3 3 2 2 1 1 -0
-1 -1 -1 -1 -2 -2 -2 -2 -2 -2 -3 -3 -2 -3 -3 -3 -3 -2 -2 -2 -2 -2 -2 -2 -2 -2 -2 -2 -2 -2 -1 -1 -0 0 1 2 2 2 3 2 2 1 0 -0
-1 -2 -2 -1 -2 -3 -2 -2 -2 -2 -4 -2 -2 -2 -3 -3 -3 -2 -2 -2 -2 -2 -2 -2 -2 -2 -2 -2 -1 -1 -1 -1 -1 -1 0 1 2 2 2 2 1 0 -0 -0
-4 -4 -4 -4 -2 -3 -3 -2 -2 -2 -2 -3 -3 -3 -3 -3 -3 -3 -2 -2 -2 -2 -2 -2 -2 -2 -2 -2 -2 -1 -1 -1 -0 -0 0 1 2 2 1 1 0 -0 -0 -1

GFSNGP_925_temp_252.txt.gz
Temp
4 6 6 7 7 7 7 8 7 10 8 9 10 11 11 12 12 12 12 12 12 12 12 12 12 14 15 15 17 20 20 20 20 20 19 19 19 18 18 17 17 16 16 16
4 7 7 7 8 8 9 9 8 8 9 10 10 11 12 11 12 11 11 11 11 11 12 12 12 12 13 14 14 16 18 19 20 19 19 18 18 18 17 16 16 16 16 16
3 6 6 4 8 9 9 9 9 8 11 12 11 12 12 11 11 11 11 11 10 10 11 11 12 12 12 13 13 13 15 18 19 19 18 18 18 17 16 16 16 16 16 16
1 4 -1 7 9 10 10 10 9 9 10 11 11 11 11 12 12 11 10 10 10 10 10 11 12 11 13 12 13 13 14 16 18 18 17 17 17 17 17 16 16 16 16 16
0 3 6 8 10 9 9 9 9 8 10 11 12 11 12 13 12 11 10 10 9 9 10 11 11 11 13 13 12 13 13 15 16 17 17 17 17 16 16 16 16 16 16 15
0 4 2 7 8 10 10 8 8 8 9 10 12 9 11 13 12 11 11 10 9 9 9 10 10 10 12 12 12 11 12 12 14 16 16 16 16 16 16 16 15 15 15 15
3 3 5 8 8 9 8 7 6 7 9 10 10 10 12 12 13 12 10 11 10 9 8 9 9 10 11 12 11 11 12 12 14 13 14 15 15 15 15 15 14 13 13 13
4 2 2 8 8 7 7 6 7 8 9 9 10 11 11 11 12 12 11 11 10 10 9 8 9 9 9 11 10 11 11 11 12 13 13 13 14 13 13 13 12 11 11 10
4 5 6 8 7 7 7 7 8 8 9 9 10 10 10 10 10 11 11 11 10 10 10 10 9 9 9 9 11 11 11 10 11 11 12 12 12 11 10 10 9 7 7 6
5 6 6 6 8 8 9 9 9 9 8 8 8 8 9 9 9 9 9 10 10 11 11 10 10 10 10 10 8 10 11 11 10 10 10 11 10 10 9 8 7 6 5 4
5 6 6 7 8 7 7 8 7 8 7 7 7 7 7 7 7 7 8 8 8 9 9 9 10 11 11 11 11 9 10 11 10 10 10 10 9 9 9 9 9 7 7 6
5 6 5 6 6 6 7 6 5 5 6 5 5 5 5 5 5 6 5 6 6 6 6 7 7 8 9 11 10 11 10 10 11 10 10 9 8 8 8 8 8 8 8 9
5 6 6 5 6 5 5 4 4 4 4 4 3 3 3 3 3 3 4 4 4 4 4 4 5 5 6 7 9 8 10 11 10 11 10 9 8 7 5 5 6 6 7 7
5 4 4 4 3 3 3 3 3 3 3 2 2 2 2 2 2 2 2 2 2 2 2 2 3 3 4 5 7 9 8 9 10 10 9 8 8 8 7 5 4 4 4 4
4 3 3 2 2 3 3 2 2 1 1 1 1 0 0 0 0 0 0 0 0 -0 0 1 0 1 2 3 5 6 6 7 8 8 10 10 8 8 7 5 5 4 3 3
3 3 3 1 2 1 1 1 1 1 0 -0 -0 -0 0 0 0 0 0 0 0 -0 -0 -0 -1 -0 0 1 2 3 4 6 7 6 7 6 7 6 5 4 3 2 2 1
2 2 1 1 1 2 2 2 2 -0 -0 0 1 1 0 0 -0 -0 -1 -1 -1 -1 -1 -1 -0 -0 -0 -0 0 1 2 3 4 5 5 4 5 5 5 4 3 2 2 2
1 1 2 1 1 1 1 0 -0 0 0 -0 -0 -1 -0 -1 -1 -1 -1 -1 -1 -1 -1 -1 -1 -1 -0 -0 -0 0 1 1 2 3 4 4 4 5 5 4 4 3 2 2
2 2 2 1 1 1 1 0 0 -0 -1 -1 -1 -1 -1 -1 -1 -1 -1 -1 -1 -1 -1 -1 -1 -1 -1 -1 -0 -0 -0 0 1 1 2 4 4 5 5 4 3 3 2 1
2 2 2 1 1 0 -0 -1 -1 -1 -1 -1 -2 -2 -1 -1 -2 -2 -2 -2 -1 -1 -1 -1 -1 -2 -1 -2 -2 -0 -0 -0 0 1 1 2 3 4 4 4 4 3 1 1
1 2 1 1 1 0 -0 -1 -2 -2 -2 -2 -2 -2 -2 -2 -2 -2 -2 -2 -1 -2 -2 -2 -2 -2 -2 -2 -2 -1 0 0 0 1 1 2 3 4 4 3 3 2 1 1
0 -0 -1 0 0 -0 0 -1 -1 -2 -2 -2 -3 -3 -3 -3 -3 -3 -2 -2 -2 -2 -2 -2 -2 -2 -2 -2 -2 -2 -1 0 0 1 1 1 2 3 3 3 3 2 2 1
-0 0 1 -0 -1 -1 -1 -1 -1 -1 -2 -3 -3 -4 -3 -3 -3 -3 -2 -2 -2 -2 -2 -2 -2 -2 -2 -2 -2 -2 -2 -1 -0 0 1 1 2 2 2 2 2 2 1 1
-2 -1 -1 -0 -1 -2 -7 -3 -2 -2 -2 -2 -3 -3 -3 -3 -3 -3 -3 -3 -3 -3 -3 -2 -2 -2 -2 -2 -2 -2 -2 -2 -1 -0 0 1 2 2 2 2 2 2 1 1
-4 -2 -1 -2 -2 -2 -3 -3 -2 -2 -2 -2 -3 -2 -3 -3 -4 -3 -3 -3 -3 -3 -2 -2 -2 -2 -2 -2 -2 -2 -2 -2 -2 -1 -1 0 1 2 2 2 2 2 1 1
-3 -4 -5 -4 -3 -4 -4 -3 -3 -2 -2 -2 -2 -2 -3 -3 -4 -3 -3 -3 -3 -2 -2 -2 -2 -2 -2 -2 -2 -2 -2 -2 -2 -2 -1 -1 0 1 2 2 2 2 2 1
-6 -6 -7 -6 -5 -6 -6 -6 -5 -3 -3 -2 -2 -3 -3 -4 -4 -3 -3 -3 -3 -3 -3 -3 -3 -2 -2 -2 -2 -2 -2 -2 -2 -2 -1 -1 -0 0 1 2 2 2 2 1